Zurück zum Katalog

DELTA 1 DEB

AktivLEO
NORAD 10835·DEBRIS·🇺🇸 United States

Gestartet Jul 29, 1976 von Vandenberg Space Force Base

Loading…

Nächste Überflüge (nächste 24 Stunden)

TLE

AktuellSource: Space-Track

Epoche: Sep 14, 2026, 15:48 UTC

1 10835U 76077CF  26257.65850874  .00008428  00000-0  77263-2 0  9998
2 10835 102.0317  34.7768 0038437 330.9505  43.0503 13.82940930377357

Verfolge DELTA 1 DEB in Echtzeit mit AllMySat

Download on the App Store